| time (UTC) | temp F | wind direction | speed MPH | gust MPH | rain 1hr in | rain 24hr in | rain mn in | humidity % | barometer mb |
| 20260505000005 | 66 | 233 | 5.0 | 10.0 | 0.00 | 0.00 | 0.00 | 54 | 1014.4 |
| 20260504234501 | 66 | 211 | 3.0 | 8.0 | 0.00 | 0.00 | 0.00 | 57 | 1014.6 |
| 20260504233001 | 65 | 216 | 4.0 | 6.0 | 0.00 | 0.00 | 0.00 | 60 | 1014.7 |
| 20260504231606 | 65 | 200 | 5.0 | 7.0 | 0.00 | 0.00 | 0.00 | 60 | 1014.8 |
| 20260504230057 | 65 | 209 | 1.0 | 3.0 | 0.00 | 0.00 | 0.00 | 61 | 1014.9 |
| 20260504224603 | 66 | 209 | 2.0 | 6.0 | 0.00 | 0.00 | 0.00 | 58 | 1015.1 |
| 20260504223051 | 67 | 226 | 4.0 | 9.0 | 0.00 | 0.00 | 0.00 | 57 | 1015.1 |
| 20260504221601 | 67 | 212 | 6.0 | 12.0 | 0.00 | 0.00 | 0.00 | 56 | 1015.1 |
| 20260504220053 | 67 | 230 | 7.0 | 10.0 | 0.00 | 0.00 | 0.00 | 57 | 1015.1 |
| 20260504214551 | 68 | 223 | 9.0 | 15.0 | 0.00 | 0.00 | 0.00 | 57 | 1015.2 |
| 20260504213052 | 68 | 235 | 8.0 | 14.0 | 0.00 | 0.00 | 0.00 | 57 | 1015.3 |
| 20260504211543 | 69 | 218 | 11.0 | 18.0 | 0.00 | 0.00 | 0.00 | 58 | 1015.4 |
| 20260504210047 | 67 | 215 | 5.0 | 9.0 | 0.00 | 0.00 | 0.00 | 69 | 1015.3 |
| 20260504204611 | 67 | 206 | 4.0 | 6.0 | 0.00 | 0.00 | 0.00 | 72 | 1015.2 |
| 20260504203034 | 67 | 193 | 3.0 | 5.0 | 0.00 | 0.00 | 0.00 | 73 | 1015.1 |
| 20260504201532 | 67 | 185 | 3.0 | 4.0 | 0.00 | 0.00 | 0.00 | 73 | 1015.0 |
| 20260504200037 | 67 | 138 | 3.0 | 5.0 | 0.00 | 0.00 | 0.00 | 72 | 1015.0 |
| 20260504194530 | 67 | 118 | 3.0 | 7.0 | 0.00 | 0.00 | 0.00 | 71 | 1015.0 |
| 20260504193031 | 67 | 132 | 4.0 | 8.0 | 0.00 | 0.00 | 0.00 | 71 | 1015.0 |
| 20260504191529 | 67 | 129 | 4.0 | 8.0 | 0.00 | 0.00 | 0.00 | 71 | 1014.9 |
| 20260504190034 | 67 | 122 | 4.0 | 10.0 | 0.00 | 0.00 | 0.00 | 70 | 1014.8 |
| 20260504184525 | 67 | 131 | 7.0 | 11.0 | 0.00 | 0.00 | 0.00 | 70 | 1014.8 |
| 20260504183028 | 67 | 142 | 7.0 | 10.0 | 0.00 | 0.00 | 0.00 | 71 | 1014.8 |
| 20260504181524 | 67 | 127 | 7.0 | 11.0 | 0.00 | 0.00 | 0.00 | 72 | 1014.7 |
| 20260504180025 | 67 | 134 | 9.0 | 14.0 | 0.00 | 0.00 | 0.00 | 72 | 1014.8 |
| 20260504174522 | 67 | 139 | 8.0 | 15.0 | 0.00 | 0.00 | 0.00 | 73 | 1014.8 |
| 20260504173020 | 67 | 132 | 8.0 | 13.0 | 0.00 | 0.00 | 0.00 | 74 | 1014.9 |
| 20260504171535 | 67 | 133 | 9.0 | 13.0 | 0.00 | 0.00 | 0.00 | 73 | 1014.9 |
| 20260504081526 | 69 | 259 | 8.0 | 11.0 | 0.00 | 0.00 | 0.00 | 43 | 1017.2 |
| 20260504044603 | 62 | 242 | 6.0 | 10.0 | 0.00 | 0.00 | 0.00 | 53 | 1015.9 |
| 20260504043054 | 62 | 240 | 6.0 | 11.0 | 0.00 | 0.00 | 0.00 | 54 | 1015.9 |
| 20260504041553 | 62 | 237 | 7.0 | 10.0 | 0.00 | 0.00 | 0.00 | 54 | 1015.8 |
| 20260504040050 | 62 | 235 | 6.0 | 12.0 | 0.00 | 0.00 | 0.00 | 54 | 1015.8 |
| 20260504034606 | 63 | 234 | 8.0 | 12.0 | 0.00 | 0.00 | 0.00 | 53 | 1015.7 |
| 20260504033017 | 63 | 254 | 10.0 | 12.0 | 0.00 | 0.00 | 0.00 | 51 | 1015.7 |
| 20260504031514 | 63 | 234 | 7.0 | 11.0 | 0.00 | 0.00 | 0.00 | 54 | 1015.7 |
| 20260504030012 | 63 | 235 | 5.0 | 8.0 | 0.00 | 0.00 | 0.00 | 57 | 1015.7 |
| 20260504024509 | 64 | 246 | 6.0 | 9.0 | 0.00 | 0.00 | 0.00 | 50 | 1015.8 |
| 20260504023003 | 64 | 233 | 5.0 | 9.0 | 0.00 | 0.00 | 0.00 | 50 | 1015.9 |
| 20260504021502 | 64 | 240 | 4.0 | 7.0 | 0.00 | 0.00 | 0.00 | 50 | 1016.0 |
| 20260504020058 | 65 | 239 | 5.0 | 10.0 | 0.00 | 0.00 | 0.00 | 48 | 1016.0 |
| 20260504014613 | 65 | 239 | 5.0 | 9.0 | 0.00 | 0.00 | 0.00 | 49 | 1016.0 |
| 20260504013055 | 65 | 231 | 5.0 | 10.0 | 0.00 | 0.00 | 0.00 | 48 | 1016.0 |
| 20260504011559 | 65 | 233 | 5.0 | 9.0 | 0.00 | 0.00 | 0.00 | 50 | 1016.1 |
| 20260504010023 | 66 | 235 | 6.0 | 10.0 | 0.00 | 0.00 | 0.00 | 48 | 1016.1 |
| 20260504004523 | 66 | 234 | 6.0 | 13.0 | 0.00 | 0.00 | 0.00 | 47 | 1016.1 |
| 20260504003058 | 67 | 228 | 7.0 | 12.0 | 0.00 | 0.00 | 0.00 | 46 | 1016.1 |
| 20260504001553 | 67 | 216 | 9.0 | 14.0 | 0.00 | 0.00 | 0.00 | 45 | 1016.1 |